Weather History for Portland Troutdale, OR

Change the Weather History Date:

Thursday, January 24, 2013

  Actual Average Record
Temperature  
Mean Temperature 40 °F 41 °F  
Max Temperature 46 °F 47 °F 60 °F (2003)
Min Temperature 33 °F 35 °F 13 °F (1950)
Degree Days  
Heating Degree Days 25 24  
Month to date heating degree days 686 614  
Cooling Degree Days 0 0  
Month to date cooling degree days 0 0  
Moisture  
Dew Point 34 °F    
Average Humidity 81    
Maximum Humidity 96    
Minimum Humidity 65    
Precipitation  
Precipitation 0.26 in 0.19 in 0.87 in (1965)
Month to date precipitation 1.23 4.98  
Year to date precipitation 1.23 4.98  
Snow  
Snow 0.00 in - - ()
Month to date snowfall 0.0  
Snow Depth 0.00 in    
Sea Level Pressure  
Sea Level Pressure 30.18 in    
Wind  
Wind Speed 9 mph (East)    
Max Wind Speed 20 mph    
Max Gust Speed 25 mph    
Visibility 5 miles    
Events Rain    
T = Trace of Precipitation, MM = Missing Value Source: NWS Daily Summary

Daily Weather History Graph

Daily Weather History Graph

Search for Another Location

Airport:

Trip Planner

Search our weather history database for the weather conditions in past years. The results will help you decide how hot, cold, wet, or windy it might be!

Date:

Astronomy

Jan. 24, 2013 Rise Set
Actual Time 7:38 AM PST 5:05 PM PST
Civil Twilight 7:06 AM PST 5:37 PM PST
Nautical Twilight 6:30 AM PST 6:13 PM PST
Astronomical Twilight 5:55 AM PST 6:48 PM PST
Moon 3:10 PM PST 5:42 AM PST
Length of Visible Light 10h 30m
Length of Day
9h 26m
Waxing Gibbous, 95% of the Moon is Illuminated
Jan 24
Waxing Gibbous
Jan 26
Full
Feb 3
Last Quarter
Feb 9
New
Feb 17
First Quarter

Hourly Weather History & Observations

Time (PST) Temp. Windchill Dew Point Humidity Pressure Visibility Wind Dir Wind Speed Gust Speed Precip Events Conditions
12:15 AM 33.8 °F - 30.2 °F 87% 30.22 in 3.0 mi Calm Calm - N/A   Overcast
12:24 AM 33.8 °F - 30.2 °F 87% 30.22 in 3.0 mi Calm Calm - N/A   Overcast
12:39 AM 33.8 °F - 30.2 °F 87% 30.23 in 2.5 mi Calm Calm - N/A   Overcast
12:53 AM 34.0 °F - 30.9 °F 89% 30.23 in 2.0 mi Calm Calm - N/A   Overcast
1:48 AM 33.8 °F - 32.0 °F 93% 30.24 in 2.0 mi Calm Calm - 0.00 in   Overcast
1:53 AM 34.0 °F - 32.0 °F 92% 30.25 in 2.0 mi Calm Calm - 0.00 in   Overcast
2:21 AM 33.8 °F - 32.0 °F 93% 30.25 in 1.8 mi Calm Calm - N/A   Overcast
2:30 AM 33.8 °F - 32.0 °F 93% 30.24 in 2.0 mi Calm Calm - N/A   Overcast
2:53 AM 34.0 °F - 32.0 °F 92% 30.25 in 2.5 mi Calm Calm - N/A   Overcast
3:00 AM 33.8 °F - 32.0 °F 93% 30.25 in 2.0 mi Calm Calm - N/A   Overcast
3:17 AM 33.8 °F - 32.0 °F 93% 30.24 in 3.0 mi Calm Calm - N/A   Overcast
3:26 AM 33.8 °F - 32.0 °F 93% 30.24 in 2.5 mi Calm Calm - N/A   Overcast
3:34 AM 33.8 °F - 32.0 °F 93% 30.25 in 3.0 mi Calm Calm - N/A   Overcast
3:53 AM 34.0 °F - 32.0 °F 92% 30.24 in 4.0 mi Calm Calm - N/A   Overcast
4:26 AM 33.8 °F 30.8 °F 32.0 °F 93% 30.22 in 5.0 mi ENE 3.5 mph - N/A   Overcast
4:53 AM 34.0 °F 29.8 °F 32.0 °F 92% 30.21 in 6.0 mi ENE 4.6 mph - N/A   Overcast
5:53 AM 35.1 °F - 32.0 °F 89% 30.23 in 8.0 mi Calm Calm - N/A   Overcast
6:09 AM 35.6 °F 32.8 °F 33.8 °F 93% 30.23 in 8.0 mi North 3.5 mph - N/A   Overcast
6:18 AM 35.6 °F - 33.8 °F 93% 30.23 in 7.0 mi Calm Calm - N/A   Overcast
6:53 AM 34.0 °F 28.0 °F 32.0 °F 92% 30.22 in 8.0 mi East 6.9 mph - N/A   Overcast
7:53 AM 34.0 °F 26.0 °F 32.0 °F 92% 30.21 in 8.0 mi East 10.4 mph - N/A   Scattered Clouds
8:53 AM 36.0 °F 31.1 °F 32.0 °F 86% 30.20 in 10.0 mi ENE 5.8 mph - N/A   Scattered Clouds
9:53 AM 37.9 °F 30.9 °F 33.1 °F 83% 30.19 in 10.0 mi ENE 10.4 mph 18.4 mph N/A   Scattered Clouds
10:53 AM 41.0 °F 32.8 °F 34.0 °F 76% 30.18 in 10.0 mi East 16.1 mph - N/A   Clear
11:53 AM 44.1 °F 37.7 °F 35.1 °F 71% 30.15 in 10.0 mi East 12.7 mph - N/A   Clear
12:53 PM 43.0 °F 35.7 °F 34.0 °F 71% 30.14 in 10.0 mi ESE 15.0 mph - N/A   Overcast
1:53 PM 43.0 °F 36.4 °F 34.0 °F 71% 30.12 in 10.0 mi ESE 12.7 mph - N/A   Overcast
2:53 PM 44.1 °F 36.8 °F 34.0 °F 68% 30.12 in 10.0 mi East 16.1 mph - N/A   Overcast
3:53 PM 45.0 °F 38.2 °F 35.1 °F 68% 30.12 in 10.0 mi East 15.0 mph - N/A   Overcast
4:53 PM 45.0 °F 40.1 °F 35.1 °F 68% 30.13 in 10.0 mi ESE 9.2 mph - N/A   Overcast
5:53 PM 43.0 °F - 37.9 °F 82% 30.14 in 10.0 mi Calm Calm - 0.00 in Rain Light Rain
6:38 PM 41.0 °F 34.3 °F 35.6 °F 81% 30.14 in 5.0 mi East 11.5 mph - 0.03 in Rain Light Rain
6:53 PM 41.0 °F 31.9 °F 36.0 °F 82% 30.11 in 7.0 mi East 19.6 mph 24.2 mph 0.06 in Rain Light Rain
7:53 PM 41.0 °F 33.5 °F 37.0 °F 86% 30.13 in 6.0 mi East 13.8 mph 21.9 mph 0.06 in Rain Light Rain
8:53 PM 39.9 °F 32.5 °F 37.0 °F 89% 30.13 in 9.0 mi East 12.7 mph 21.9 mph 0.02 in Rain Light Rain
9:00 PM 39.2 °F 31.6 °F 37.4 °F 93% 30.13 in 6.0 mi East 12.7 mph - 0.00 in Rain Light Rain
9:21 PM 39.2 °F 32.5 °F 37.4 °F 93% 30.14 in 2.5 mi East 10.4 mph 18.4 mph 0.01 in Rain Light Rain
9:28 PM 39.2 °F 33.0 °F 37.4 °F 93% 30.15 in 3.0 mi East 9.2 mph - 0.01 in Rain Light Rain
9:39 PM 41.0 °F 35.8 °F 37.4 °F 87% 30.15 in 3.0 mi East 8.1 mph - 0.02 in Rain Light Rain
9:50 PM 39.2 °F 34.2 °F 37.4 °F 93% 30.15 in 2.5 mi East 6.9 mph - 0.04 in Rain Light Rain
9:53 PM 39.9 °F 33.9 °F 37.9 °F 93% 30.14 in 2.5 mi East 9.2 mph - 0.04 in Rain Light Rain
10:14 PM 39.2 °F 33.0 °F 37.4 °F 93% 30.15 in 3.0 mi East 9.2 mph - 0.03 in Rain Light Rain
10:26 PM 39.2 °F 32.0 °F 37.4 °F 93% 30.15 in 3.0 mi East 11.5 mph - 0.04 in Rain Light Rain
10:41 PM 39.2 °F 31.2 °F 37.4 °F 93% 30.15 in 2.5 mi East 13.8 mph 18.4 mph 0.05 in Rain Light Rain
10:53 PM 39.9 °F 32.9 °F 37.0 °F 89% 30.15 in 2.5 mi East 11.5 mph - 0.05 in Rain Light Rain
11:28 PM 39.2 °F 30.5 °F 37.4 °F 93% 30.15 in 3.0 mi East 16.1 mph 21.9 mph 0.02 in Rain Light Rain
11:53 PM 39.0 °F 30.3 °F 36.0 °F 89% 30.15 in 3.0 mi East 16.1 mph 25.3 mph 0.03 in Rain Light Rain